Home   Weather   Amsterdam Island   Past weeks

Flag for French Southern Territories Past Weather in Amsterdam Island, French Southern Territories — Yesterday and Last 2 Weeks

Now
57 °F

Cool.


Feels Like: 57 °F
Forecast: 57 / 62 °F
Wind: 3 mph from Southwest

Location: Martin De Vivies Ile Amsterdam

Current Time: Jan 20, 2017 at 4:43:04 am

Latest Report: Jan 20, 2017 at 4:00 am


Visibility: N/A

Pressure: 30.23 "Hg

Humidity: 71%

Dew Point: 48 °F

Location of Amsterdam IslandLocation

Past Weather in Amsterdam Island — Graph

°F

Amsterdam Island Temperature Yesterday

Maximum temperature yesterday: 69 °F (at 2:00 pm)
Minimum temperature yesterday: 53 °F (at 11:00 pm)
Average temperature yesterday: 62 °F

High & Low Weather Summary for the Past Weeks

 TemperatureHumidityPressure
High72 °F (Jan 18, 2:00 pm)97% (Jan 5, 10:00 pm)30.45 "Hg (Jan 5, 10:00 pm)
Low49 °F (Jan 15, 5:00 am)45% (Jan 15, 12:00 pm)29.75 "Hg (Jan 9, 7:00 pm)
Average61 °F73%30.12 "Hg
* Reported Jan 5 3:00 am — Jan 20 3:00 am, Amsterdam Island, Weather by CustomWeather, © 2017

Note: Actual official high and low records may vary slightly from our data, if they occured in-between our weather recording intervals... More about our weather records

Advertising

Amsterdam Island Weather History for the Previous 24 Hours

Scroll right to see more
 ConditionsComfort  
Time TempWeatherWind HumidityBarometerVisibility
3:00 am
Fri, Jan 20
54 °FCool.5 mph73%30.23 "HgN/A
2:00 am55 °FCool.3 mph75%30.22 "HgN/A
1:00 am55 °FCool.2 mph71%30.23 "HgN/A
12:00 am54 °FCool.1 mph75%30.24 "HgN/A
11:00 pm
Thu, Jan 19
53 °FCool.5 mph77%30.24 "HgN/A
10:00 pm54 °FCool.3 mph71%30.24 "HgN/A
9:00 pm54 °FCool.No wind73%30.24 "HgN/A
8:00 pm55 °FCool.2 mph68%30.22 "HgN/A
7:00 pm57 °FCool.2 mph66%30.21 "HgN/A
6:00 pm59 °FCool.5 mph66%30.20 "HgN/A
5:00 pm61 °FCool.9 mph63%30.19 "HgN/A
4:00 pm65 °FMild.10 mph60%30.19 "HgN/A
3:00 pm67 °FMild.9 mph58%30.18 "HgN/A
2:00 pm69 °FMild.8 mph61%30.18 "HgN/A
1:00 pm66 °FMild.5 mph65%30.17 "HgN/A
12:00 pm64 °FMild.10 mph74%30.17 "HgN/A
11:00 am64 °FMild.15 mph76%30.17 "HgN/A
10:00 am63 °FMild.15 mph82%30.17 "HgN/A
9:00 am62 °FCool.16 mph89%30.16 "HgN/A
8:00 am65 °FMild.7 mph83%30.15 "HgN/A
7:00 am61 °FCool.15 mph95%30.15 "HgN/A
6:00 am64 °FMild.8 mph96%30.13 "HgN/A
5:00 am64 °FMild.14 mph97%30.11 "HgN/A
4:00 am64 °FMild.14 mph97%30.10 "HgN/A
Weather by CustomWeather, © 2017

See weather overviewHow to use our weather pages